#timestamp,LO_Frequency,Hit,StdDev 
1559066415.4,286047012.0,N
1559066435.3,286047011.2,N
1559066455.1,286047014.7,Y
1559066475.8,286047003.5,P
1559066495.7,286047007.4,N
1559066515.5,286047008.0,N
1559066535.4,286047007.0,N
1559066555.2,286047002.7,N
1559066575.0,286047002.0,N
1559066575.9,286047002.0,N
1559066595.8,286047003.1,N
1559066615.6,286047001.3,N
1559066635.5,286047002.0,N
1559066655.3,286047005.9,N
1559066675.1,286047007.7,N
1559066695.9,286047007.5,N
1559066715.7,286047001.3,N
1559066735.5,286047000.8,N
1559066755.4,286047002.3,N
1559066775.2,286047004.9,N
1559066795.1,286047007.2,N
1559066796.0,286047007.2,N
1559066815.8,286047007.2,N
1559066835.6,286047009.0,Y
1559066855.5,286047002.9,P
1559066875.3,286047008.4,P
1559066895.1,286047007.6,P
1559066915.9,286047002.2,N
1559066935.7,286047005.1,N
1559066955.6,286047006.0,N
1559066975.4,286047001.9,N
1559066995.2,286047005.6,N
1559067015.1,286047002.7,N
1559067016.0,286047002.7,N
1559067035.8,286047002.4,N
1559067055.7,286047000.2,N
1559067075.5,286047001.5,N
1559067095.3,286047005.6,N
1559067115.2,286047003.1,N
1559067135.0,286047002.0,N
1559067135.9,286047002.0,N
1559067155.7,286047002.3,N
1559067175.6,286047001.1,N
1559067195.4,286047001.9,N
1559067215.3,286047005.3,N
1559067235.1,286047008.9,Y
1559067255.8,286047000.1,P
1559067275.7,286047004.4,N
1559067295.5,286047005.1,N
1559067315.4,286047007.0,Y
1559067335.2,286046998.8,P
1559067355.0,286046996.6,N
1559067355.9,286046996.6,N
1559067375.8,286046999.4,N
1559067395.6,286047000.3,N
1559067415.4,286046995.1,N
1559067435.3,286046997.2,N
1559067455.1,286046997.4,N
1559067475.9,286047000.2,N
1559067495.7,286047002.0,N
1559067515.5,286046995.0,N
1559067535.4,286046995.5,N
1559067555.2,286046999.2,N
1559067575.0,286046992.1,Y
1559067576.0,286046992.1,P
1559067595.8,286046991.2,N
1559067615.6,286046990.9,N
1559067635.5,286046998.2,N
1559067655.3,286046993.8,N
1559067675.1,286046989.0,Y
1559067695.9,286046995.3,P
1559067715.7,286046998.8,N
1559067735.6,286046996.8,N
1559067755.4,286047000.9,N
1559067775.2,286047002.0,N
1559067795.1,286046996.8,N
1559067796.0,286046996.8,N
1559067815.8,286046997.2,N
1559067835.6,286046998.6,N
1559067855.5,286047003.8,N
1559067875.3,286047003.9,N
1559067895.2,286046998.2,N
1559067915.9,286047002.4,N
1559067935.7,286047005.0,N
1559067955.6,286047008.6,N
1559067975.4,286047010.4,N
1559067995.2,286047011.2,N
1559068015.1,286047011.0,N
1559068016.0,286047011.0,N
1559068035.8,286047010.9,N
1559068055.7,286047018.5,Y
1559068075.5,286047010.9,P
1559068095.3,286047011.4,N
1559068115.2,286047012.8,P
1559068135.0,286047017.1,Y
1559068135.9,286047017.1,P
1559068155.8,286047005.5,N
1559068175.6,286047004.2,N
1559068195.4,286047004.9,N
1559068215.3,286047004.1,N
1559068235.1,286047007.6,N
1559068255.9,286047007.8,N
1559068275.7,286047010.8,N
1559068295.5,286047010.6,N
1559068315.4,286047004.8,N
1559068335.2,286047008.7,N
1559068355.0,286047013.6,Y
1559068355.9,286047013.6,P
1559068375.8,286047005.7,N
1559068395.6,286047005.5,N
1559068415.5,286047004.2,N
1559068435.3,286047001.7,N
1559068455.1,286047002.8,N
1559068475.9,286047000.2,N
1559068495.7,286046995.0,N
1559068515.6,286047000.3,N
1559068535.4,286047000.6,N
1559068555.2,286046997.7,N
1559068575.1,286046993.6,N
1559068576.0,286046993.6,N
1559068595.8,286046997.3,N
1559068615.6,286046997.8,N
1559068635.5,286046997.4,N
1559068655.3,286047001.3,N
1559068675.2,286046998.5,N
1559068695.9,286047001.0,N
1559068715.7,286047000.2,N
1559068735.6,286046997.8,N
1559068755.4,286046997.3,N
1559068775.2,286046998.4,N
1559068795.1,286046996.8,N
1559068796.0,286046996.8,N
1559068815.8,286046996.8,N
1559068835.7,286046997.8,N
1559068855.5,286046995.7,N
1559068875.3,286046992.0,N
1559068895.2,286046997.7,N
1559068915.0,286047001.1,N
1559068915.9,286047001.1,N
1559068935.7,286047005.6,N
1559068955.6,286047010.5,Y
1559068975.4,286047015.5,P
1559068995.3,286047009.7,N
1559069015.1,286047011.6,N
1559069035.8,286047015.0,N
1559069055.7,286047016.6,N
1559069075.5,286047013.2,N
1559069095.4,286047013.0,N
1559069115.2,286047017.8,Y
1559069135.0,286047007.2,P
1559069135.9,286047007.2,P
1559069155.8,286047002.6,N
1559069175.6,286047000.9,N
1559069195.4,286046999.6,N
1559069215.3,286046996.0,N
1559069235.1,286046995.6,N
1559069255.9,286046996.8,N
1559069275.7,286046999.6,N
1559069295.5,286046997.8,N
1559069315.4,286047002.8,N
1559069335.2,286047005.3,N
1559069355.0,286047007.6,N
1559069355.9,286047007.6,N
1559069375.8,286047008.6,N
1559069395.6,286047009.2,N
1559069415.5,286047007.7,N
1559069435.3,286047006.2,N
1559069455.1,286047011.9,N
1559069475.9,286047003.9,N
1559069495.7,286047004.9,N
1559069515.6,286047008.2,N
1559069535.4,286047010.3,N
1559069555.2,286047008.1,N
1559069575.1,286047007.8,N
1559069576.0,286047007.8,N
1559069595.8,286047009.7,N
1559069615.6,286047010.6,N
1559069635.5,286047010.6,N
1559069655.3,286047011.3,N
1559069675.2,286047013.3,N
1559069695.9,286047013.9,N
1559069715.7,286047017.2,Y
1559069735.6,286047010.5,P
1559069755.4,286047011.8,P
1559069775.2,286047007.7,P
1559069795.1,286047010.7,Y
1559069796.0,286047010.7,P
1559069815.8,286047000.7,N
1559069835.7,286046999.9,N
1559069855.5,286047001.6,N
1559069875.3,286047000.6,N
1559069895.2,286046999.9,N
1559069915.0,286047000.1,N
1559069915.9,286047000.1,N
1559069935.8,286047002.3,N
1559069955.6,286047000.5,N
1559069975.4,286046998.8,N
1559069995.3,286047000.8,N
